Overview Statistics Trail Chart Weather Telemetry Raw packets
 

This is the latest recevied weather packets stored in our database for station/object K2CAT. If no packets are shown the sender has not sent any weather packets the latest 10 day(s).

<< 74 75 76 77 78 79 80 >>
Time Temp. Humidity Pressure Rain* Wind** Luminosity Snow
1777178819 5.56° C 99% 1019.3 hPa 1.78 mm - 0 W/m² -
1777178515 5.56° C 98% 1019.3 hPa 1.27 mm - 0 W/m² -
1777178213 5° C 98% 1019.4 hPa 1.27 mm - 0 W/m² -
1777177910 5° C 98% 1019.3 hPa 1.78 mm - 0 W/m² -
1777177605 5° C 98% 1019.3 hPa 3.05 mm - 0 W/m² -
1777177301 5° C 98% 1019.3 hPa 3.05 mm - 0 W/m² -
1777176999 5° C 98% 1019.4 hPa 3.05 mm - 0 W/m² -
1777176694 5.56° C 98% 1019.2 hPa 1.27 mm - 0 W/m² -
1777176392 5.56° C 98% 1019.2 hPa 0 mm - 0 W/m² -
1777176088 5.56° C 98% 1019.4 hPa 0 mm - 0 W/m² -
1777175787 5.56° C 98% 1019.3 hPa 0 mm - 0 W/m² -
1777175481 5.56° C 98% 1019.2 hPa 0 mm - 0 W/m² -
1777175181 5.56° C 98% 1019.3 hPa 0 mm - 0 W/m² -
1777174878 5.56° C 98% 1019.3 hPa 1.78 mm - 0 W/m² -
1777174575 5.56° C 98% 1019.4 hPa 1.78 mm - 0 W/m² -
1777174274 5.56° C 98% 1019.4 hPa 0 mm - 0 W/m² -
1777173970 5.56° C 98% 1019.4 hPa 0 mm - 0 W/m² -
1777173667 5.56° C 98% 1019.5 hPa 0 mm - 0 W/m² -
1777173366 5.56° C 98% 1019.5 hPa 0 mm - 0 W/m² -
1777173061 5.56° C 98% 1019.5 hPa 0 mm - 0 W/m² -
1777172759 5.56° C 98% 1019.3 hPa 1.78 mm - 0 W/m² -
1777172456 5.56° C 98% 1019.5 hPa 1.78 mm - 0 W/m² -
1777172151 5.56° C 98% 1019.4 hPa 0 mm - 0 W/m² -
1777171848 5.56° C 98% 1019.4 hPa 0 mm - 0 W/m² -
1777171544 5.56° C 98% 1019.4 hPa 1.27 mm - 0 W/m² -

* Rain latest hour (hover to see other rain measurements)
** Current wind speed in m/s (hover to see current wind gust speed)